Tanana, AK

10:18 PM AKST on December 16, 2017 (GMT -0900)
Calhoun Memorial

Weather History for PATA - October, 2012

Change the Weather History Date:

Wednesday, October 24, 2012

  Actual Average Record
Temperature  
Mean Temperature 8 °F -  
Max Temperature 21 °F 22 °F 39 °F (1957)
Min Temperature -5 °F 9 °F -18 °F (1970)
Degree Days  
Heating Degree Days 57    
Moisture  
Dew Point 2 °F    
Average Humidity 77    
Maximum Humidity 88    
Minimum Humidity 60    
Precipitation  
Precipitation 0.00 in - - ()
Snow  
Snow 0.00 in - - ()
Snow Depth 2.00 in    
Sea Level Pressure  
Sea Level Pressure 30.74 in    
Wind  
Wind Speed 4 mph (NNE)    
Max Wind Speed 13 mph    
Max Gust Speed -    
Visibility 10 miles    
Events Snow    
Averages and records for this station are not official NWS values.
T = Trace of Precipitation, MM = Missing Value Source: NWS Daily Summary

Daily Weather History Graph

Daily Weather History Graph

Search for Another Location

Airport or City:

Trip Planner

Search our weather history database for the weather conditions in past years. The results will help you decide how hot, cold, wet, or windy it might be!

Date:

Astronomy

Oct. 24, 2012 Rise Set
Actual Time 9:33 AM AKDT 6:10 PM AKDT
Civil Twilight 8:40 AM AKDT 7:03 PM AKDT
Nautical Twilight 7:42 AM AKDT 8:01 PM AKDT
Astronomical Twilight 6:44 AM AKDT 8:58 PM AKDT
Moon 4:58 PM AKDT (10/24) 2:57 AM AKDT (10/24)
Length of Visible Light 10h 23m
Length of Day
8h 36m
Waxing Gibbous, 77% of the Moon is Illuminated
Oct 24
Waxing Gibbous
Oct 29
Full
Nov 6
Last Quarter
Nov 13
New
Nov 20
First Quarter

Hourly Weather History & Observations

Time (AKDT) Temp. Windchill Dew Point Humidity Pressure Visibility Wind Dir Wind Speed Gust Speed Precip Events Conditions
12:52 AM -2.0 °F -10.1 °F -7.1 °F 79% 30.73 in 10.0 mi NE 3.5 mph - N/A   Clear
1:52 AM -4.0 °F -14.6 °F -8.0 °F 83% 30.73 in 10.0 mi NNW 4.6 mph - N/A   Clear
2:52 AM -2.9 °F -11.2 °F -8.0 °F 79% 30.74 in 10.0 mi NW 3.5 mph - N/A   Clear
3:52 AM -5.1 °F - -9.0 °F 83% 30.73 in 10.0 mi Calm Calm - N/A   Clear
4:52 AM -4.0 °F -14.6 °F -9.0 °F 79% 30.73 in 10.0 mi North 4.6 mph - N/A   Clear
5:52 AM -2.9 °F -15.0 °F -8.0 °F 79% 30.74 in 10.0 mi North 5.8 mph - N/A   Clear
6:52 AM -2.9 °F -15.0 °F -7.1 °F 82% 30.74 in 10.0 mi WNW 5.8 mph - N/A   Clear
7:52 AM -2.0 °F - -6.0 °F 83% 30.75 in 10.0 mi Calm Calm - N/A   Clear
8:52 AM -2.0 °F -12.2 °F -7.1 °F 79% 30.75 in 10.0 mi NNW 4.6 mph - N/A   Partly Cloudy
9:52 AM -2.9 °F -16.5 °F -7.1 °F 82% 30.75 in 10.0 mi North 6.9 mph - N/A   Clear
10:52 AM 3.0 °F - -0.0 °F 87% 30.76 in 10.0 mi Calm Calm - N/A   Clear
11:52 AM 15.1 °F 7.7 °F 10.0 °F 80% 30.74 in 10.0 mi East 4.6 mph - N/A   Partly Cloudy
12:52 PM 16.0 °F 8.8 °F 10.9 °F 81% 30.74 in 10.0 mi East 4.6 mph - 0.00 in   Partly Cloudy
1:52 PM 19.9 °F 7.9 °F 9.0 °F 62% 30.73 in 10.0 mi East 11.5 mph - 0.00 in   Partly Cloudy
2:52 PM 21.9 °F 11.7 °F 10.0 °F 60% 30.73 in 10.0 mi East 9.2 mph - 0.00 in Snow Light Snow
3:52 PM 21.0 °F 16.2 °F 10.0 °F 63% 30.73 in 10.0 mi Variable 3.5 mph - 0.00 in   Partly Cloudy
4:52 PM 19.9 °F 12.1 °F 10.0 °F 65% 30.74 in 10.0 mi West 5.8 mph - N/A   Partly Cloudy
5:52 PM 18.0 °F 5.4 °F 10.9 °F 74% 30.74 in 10.0 mi SE 11.5 mph - N/A   Scattered Clouds
6:52 PM 16.0 °F 2.3 °F 9.0 °F 74% 30.74 in 10.0 mi East 12.7 mph - N/A   Scattered Clouds
7:52 PM 12.9 °F - 6.1 °F 74% 30.73 in 10.0 mi Calm Calm - N/A   Scattered Clouds
8:52 PM 14.0 °F 8.2 °F 7.0 °F 74% 30.74 in 10.0 mi Variable 3.5 mph - N/A   Clear
9:52 PM 10.9 °F 2.9 °F 7.0 °F 84% 30.74 in 10.0 mi North 4.6 mph - 0.00 in   Clear
10:52 PM 14.0 °F 2.9 °F 8.1 °F 77% 30.73 in 10.0 mi East 8.1 mph - N/A   Clear
11:52 PM 12.0 °F - 9.0 °F 88% 30.74 in 10.0 mi Calm Calm - 0.00 in   Clear